User: anonymous   Login
Location: Bois de la Silve
(44.4667°N, 6.7833°E)
Time: 23:48:24
(UTC+00:00)
Language:

Cosmos 1447 Rocket - Orbit

View from above orbital plane
View from above orbital plane
View from above satellite
View from above satellite

Ground track
Ground track

The orbit data is extracted from the following two-line orbital elements,

1 13917U 83021B   21167.56266998  .00000016  00000-0  18423-6 0  9994
2 13917  82.9441 241.7189 0029833 122.3835 351.7682 13.76874825920286
Epoch (UTC): 16 June 2021 13:30:14
Eccentricity: 0.0029833
inclination: 82.9441°
perigee height: 953 km
apogee height: 997 km
right ascension of ascending node: 241.7189°
argument of perigee: 122.3835°
revolutions per day: 13.76874825
mean anomaly at epoch: 351.7682°
orbit number at epoch: 92028

The dashed part of the orbit path shows where the satellite is in the earth's shadow,  

DLR